Tracking 27107 objects as of 20-Mar-2023
HD Live streaming from Space Station
objects crossing your sky now

CRRES DEB (CANISTER)

Track CRRES DEB (CANISTER) now!
10-day predictions


NORAD ID: 21948
Int'l Code: 1990-065S
Perigee: 291.7 km
Apogee: 22,978.6 km
Inclination: 17.7 °
Period: 400.8 minutes
Semi major axis: 18006 km
RCS: 0.1262 m2 (medium)
Launch date: July 25, 1990
Source: United States (US)
Launch site: AIR FORCE EASTERN TEST RANGE (AFETR)

Note: This is SATELLITE DEBRIS
Your satellite tracking list
Your tracking list is empty




NASA's NSSDC Master Catalog

Two Line Element Set (TLE):
1 21948U 90065S   23078.64969683  .00004665  00000-0  12551-2 0  9992
2 21948  17.6588 186.9978 6299758  19.3495 356.4451  3.59311177320174
Source of the keplerian elements: AFSPC